Location: Koussan�
(15.2012°N, 12.5548°W)
Time: 17:25:32
(UTC+00:00)

Aureole 2 - Pass Details

Date: 20 October 2020
Orbit: 367 x 896 km, 73.9° (Epoch: 29 November)

Event Time Altitude Azimuth Distance (km) Brightness Sun altitude
Rises 19:02:04 0° 344° (NNW) 2,486 8.3 -9.3°
Reaches altitude 10° 19:04:16 10° 343° (NNW) 1,539 7.2 -9.8°
Maximum altitude 19:07:35 75° 257° (WSW) 418 4.4 -10.6°
Drops below altitude 10° 19:10:34 10° 172° (S) 1,389 6.9 -11.3°
Sets 19:12:28 0° 170° (S) 2,214 7.9 -11.7°
